Year,Month,Day,Hour,Minute,Value (Times are PST for windgust in km/hr)
2010,04,24,00,00,1.60
2010,04,24,00,01,3.20
2010,04,24,00,02,3.20
2010,04,24,00,03,3.20
2010,04,24,00,04,1.60
2010,04,24,00,06,1.60
2010,04,24,00,07,1.60
2010,04,24,00,10,1.60
2010,04,24,00,12,1.60
2010,04,24,00,13,1.60
2010,04,24,00,14,4.80
2010,04,24,00,15,8.10
2010,04,24,00,16,6.40
2010,04,24,00,17,4.80
2010,04,24,00,18,4.80
2010,04,24,00,19,1.60
2010,04,24,00,20,3.20
2010,04,24,00,21,1.60
2010,04,24,00,22,3.20
2010,04,24,00,23,3.20
2010,04,24,00,24,1.60
2010,04,24,00,25,1.60
2010,04,24,00,29,1.60
2010,04,24,00,30,4.80
2010,04,24,00,31,3.20
2010,04,24,00,32,1.60
2010,04,24,00,33,4.80
2010,04,24,00,34,4.80
2010,04,24,00,35,3.20
2010,04,24,00,36,3.20
2010,04,24,00,37,4.80
2010,04,24,00,38,3.20
2010,04,24,00,39,3.20
2010,04,24,00,40,1.60
2010,04,24,00,45,1.60
2010,04,24,00,46,3.20
2010,04,24,00,47,3.20
2010,04,24,00,48,3.20
2010,04,24,00,49,4.80
2010,04,24,00,50,4.80
2010,04,24,00,51,4.80
2010,04,24,00,52,3.20
2010,04,24,00,53,4.80
2010,04,24,00,54,4.80
2010,04,24,00,55,4.80
2010,04,24,00,56,4.80
2010,04,24,00,57,4.80
2010,04,24,00,58,4.80
2010,04,24,00,59,6.40
2010,04,24,01,00,4.80
2010,04,24,01,01,3.20
2010,04,24,01,02,3.20
2010,04,24,01,03,4.80
2010,04,24,01,04,6.40
2010,04,24,01,05,4.80
2010,04,24,01,06,3.20
2010,04,24,01,07,8.10
2010,04,24,01,08,6.40
2010,04,24,01,09,8.10
2010,04,24,01,10,8.10
2010,04,24,01,11,6.40
2010,04,24,01,12,8.10
2010,04,24,01,13,9.60
2010,04,24,01,14,6.40
2010,04,24,01,15,4.80
2010,04,24,01,16,3.20
2010,04,24,01,17,4.80
2010,04,24,01,18,4.80
2010,04,24,01,19,4.80
2010,04,24,01,20,4.80
2010,04,24,01,21,4.80
2010,04,24,01,22,3.20
2010,04,24,01,23,3.20
2010,04,24,01,24,3.20
2010,04,24,01,25,3.20
2010,04,24,01,26,1.60
2010,04,24,01,27,1.60
2010,04,24,01,28,1.60
2010,04,24,01,31,1.60
2010,04,24,01,33,1.60
2010,04,24,01,34,1.60
2010,04,24,01,49,1.60
2010,04,24,01,50,1.60
2010,04,24,01,51,8.10
2010,04,24,01,52,6.40
2010,04,24,01,53,3.20
2010,04,24,01,54,3.20
2010,04,24,01,55,4.80
2010,04,24,01,56,3.20
2010,04,24,01,57,3.20
2010,04,24,01,59,3.20
2010,04,24,02,00,3.20
2010,04,24,02,01,1.60
2010,04,24,02,03,1.60
2010,04,24,02,04,3.20
2010,04,24,02,05,1.60
2010,04,24,02,06,1.60
2010,04,24,02,07,1.60
2010,04,24,02,08,1.60
2010,04,24,02,09,1.60
2010,04,24,02,12,3.20
2010,04,24,02,13,3.20
2010,04,24,02,14,3.20
2010,04,24,02,15,1.60
2010,04,24,02,17,3.20
2010,04,24,02,20,1.60
2010,04,24,02,22,1.60
2010,04,24,02,23,3.20
2010,04,24,02,24,1.60
2010,04,24,02,25,1.60
2010,04,24,02,28,3.20
2010,04,24,02,29,3.20
2010,04,24,02,30,3.20
2010,04,24,02,31,3.20
2010,04,24,02,32,3.20
2010,04,24,02,33,3.20
2010,04,24,02,34,1.60
2010,04,24,02,35,1.60
2010,04,24,02,36,4.80
2010,04,24,02,37,3.20
2010,04,24,02,38,1.60
2010,04,24,02,39,3.20
2010,04,24,02,40,3.20
2010,04,24,02,41,3.20
2010,04,24,02,42,3.20
2010,04,24,02,43,3.20
2010,04,24,02,44,1.60
2010,04,24,02,50,1.60
2010,04,24,02,51,3.20
2010,04,24,02,52,1.60
2010,04,24,02,53,3.20
2010,04,24,02,54,1.60
2010,04,24,02,55,3.20
2010,04,24,02,56,9.60
2010,04,24,02,57,6.40
2010,04,24,02,58,4.80
2010,04,24,02,59,6.40
2010,04,24,03,00,16.10
2010,04,24,03,01,6.40
2010,04,24,03,02,3.20
2010,04,24,03,04,11.30
2010,04,24,03,05,3.20
2010,04,24,03,06,8.10
2010,04,24,03,07,9.60
2010,04,24,03,08,8.10
2010,04,24,03,09,1.60
2010,04,24,03,10,6.40
2010,04,24,03,11,14.50
2010,04,24,03,12,8.10
2010,04,24,03,13,6.40
2010,04,24,03,14,6.40
2010,04,24,03,15,4.80
2010,04,24,03,16,9.60
2010,04,24,03,17,9.60
2010,04,24,03,18,12.90
2010,04,24,03,19,6.40
2010,04,24,03,20,4.80
2010,04,24,03,21,6.40
2010,04,24,03,22,6.40
2010,04,24,03,23,9.60
2010,04,24,03,24,9.60
2010,04,24,03,25,9.60
2010,04,24,03,26,9.60
2010,04,24,03,27,6.40
2010,04,24,03,28,11.30
2010,04,24,03,29,9.60
2010,04,24,03,30,4.80
2010,04,24,03,31,6.40
2010,04,24,03,32,8.10
2010,04,24,03,33,6.40
2010,04,24,03,34,8.10
2010,04,24,03,35,9.60
2010,04,24,03,36,6.40
2010,04,24,03,37,11.30
2010,04,24,03,38,9.60
2010,04,24,03,39,8.10
2010,04,24,03,40,8.10
2010,04,24,03,41,8.10
2010,04,24,03,42,11.30
2010,04,24,03,43,9.60
2010,04,24,03,44,9.60
2010,04,24,03,45,19.30
2010,04,24,03,46,14.50
2010,04,24,03,47,19.30
2010,04,24,03,48,19.30
2010,04,24,03,49,19.30
2010,04,24,03,50,17.70
2010,04,24,03,51,20.90
2010,04,24,03,52,19.30
2010,04,24,03,53,16.10
2010,04,24,03,54,17.70
2010,04,24,03,55,17.70
2010,04,24,03,56,9.60
2010,04,24,03,57,11.30
2010,04,24,03,58,11.30
2010,04,24,03,59,16.10
2010,04,24,04,00,16.10
2010,04,24,04,01,9.60
2010,04,24,04,02,8.10
2010,04,24,04,03,11.30
2010,04,24,04,04,11.30
2010,04,24,04,05,12.90
2010,04,24,04,06,9.60
2010,04,24,04,07,12.90
2010,04,24,04,08,17.70
2010,04,24,04,09,11.30
2010,04,24,04,10,14.50
2010,04,24,04,11,11.30
2010,04,24,04,12,16.10
2010,04,24,04,13,16.10
2010,04,24,04,14,24.20
2010,04,24,04,15,19.30
2010,04,24,04,16,19.30
2010,04,24,04,17,16.10
2010,04,24,04,18,17.70
2010,04,24,04,19,16.10
2010,04,24,04,20,19.30
2010,04,24,04,21,17.70
2010,04,24,04,22,19.30
2010,04,24,04,23,19.30
2010,04,24,04,24,16.10
2010,04,24,04,25,14.50
2010,04,24,04,26,19.30
2010,04,24,04,27,20.90
2010,04,24,04,28,24.20
2010,04,24,04,29,17.70
2010,04,24,04,30,17.70
2010,04,24,04,31,20.90
2010,04,24,04,32,16.10
2010,04,24,04,33,16.10
2010,04,24,04,34,14.50
2010,04,24,04,35,17.70
2010,04,24,04,36,11.30
2010,04,24,04,37,9.60
2010,04,24,04,38,11.30
2010,04,24,04,39,14.50
2010,04,24,04,40,20.90
2010,04,24,04,41,19.30
2010,04,24,04,42,14.50
2010,04,24,04,43,17.70
2010,04,24,04,44,11.30
2010,04,24,04,45,16.10
2010,04,24,04,46,20.90
2010,04,24,04,47,16.10
2010,04,24,04,48,20.90
2010,04,24,04,49,16.10
2010,04,24,04,50,19.30
2010,04,24,04,51,19.30
2010,04,24,04,52,19.30
2010,04,24,04,53,16.10
2010,04,24,04,54,19.30
2010,04,24,04,55,17.70
2010,04,24,04,56,22.50
2010,04,24,04,57,17.70
2010,04,24,04,58,24.20
2010,04,24,04,59,20.90
2010,04,24,05,00,24.20
2010,04,24,05,01,19.30
2010,04,24,05,02,30.60
2010,04,24,05,03,30.60
2010,04,24,05,04,25.70
2010,04,24,05,05,29.00
2010,04,24,05,06,22.50
2010,04,24,05,07,25.70
2010,04,24,05,08,17.70
2010,04,24,05,09,20.90
2010,04,24,05,10,16.10
2010,04,24,05,11,20.90
2010,04,24,05,12,22.50
2010,04,24,05,13,19.30
2010,04,24,05,14,19.30
2010,04,24,05,15,19.30
2010,04,24,05,16,19.30
2010,04,24,05,17,20.90
2010,04,24,05,18,17.70
2010,04,24,05,19,30.60
2010,04,24,05,20,29.00
2010,04,24,05,21,22.50
2010,04,24,05,22,19.30
2010,04,24,05,23,22.50
2010,04,24,05,24,16.10
2010,04,24,05,25,29.00
2010,04,24,05,26,17.70
2010,04,24,05,27,25.70
2010,04,24,05,28,17.70
2010,04,24,05,29,19.30
2010,04,24,05,30,24.20
2010,04,24,05,31,24.20
2010,04,24,05,32,24.20
2010,04,24,05,33,20.90
2010,04,24,05,34,17.70
2010,04,24,05,35,29.00
2010,04,24,05,36,24.20
2010,04,24,05,37,25.70
2010,04,24,05,38,19.30
2010,04,24,05,39,20.90
2010,04,24,05,40,20.90
2010,04,24,05,41,19.30
2010,04,24,05,42,17.70
2010,04,24,05,43,19.30
2010,04,24,05,44,22.50
2010,04,24,05,45,17.70
2010,04,24,05,46,17.70
2010,04,24,05,47,19.30
2010,04,24,05,48,16.10
2010,04,24,05,49,16.10
2010,04,24,05,50,19.30
2010,04,24,05,51,14.50
2010,04,24,05,52,19.30
2010,04,24,05,53,11.30
2010,04,24,05,54,16.10
2010,04,24,05,55,17.70
2010,04,24,05,56,11.30
2010,04,24,05,57,11.30
2010,04,24,05,58,9.60
2010,04,24,05,59,11.30
2010,04,24,06,00,16.10
2010,04,24,06,01,19.30
2010,04,24,06,02,11.30
2010,04,24,06,03,16.10
2010,04,24,06,04,14.50
2010,04,24,06,05,11.30
2010,04,24,06,06,19.30
2010,04,24,06,07,24.20
2010,04,24,06,08,17.70
2010,04,24,06,09,11.30
2010,04,24,06,10,9.60
2010,04,24,06,11,16.10
2010,04,24,06,12,16.10
2010,04,24,06,13,14.50
2010,04,24,06,14,16.10
2010,04,24,06,15,11.30
2010,04,24,06,16,9.60
2010,04,24,06,17,6.40
2010,04,24,06,18,11.30
2010,04,24,06,19,6.40
2010,04,24,06,20,3.20
2010,04,24,06,21,3.20
2010,04,24,06,22,6.40
2010,04,24,06,23,9.60
2010,04,24,06,24,8.10
2010,04,24,06,25,3.20
2010,04,24,06,26,8.10
2010,04,24,06,27,9.60
2010,04,24,06,28,6.40
2010,04,24,06,29,4.80
2010,04,24,06,30,4.80
2010,04,24,06,31,4.80
2010,04,24,06,32,6.40
2010,04,24,06,33,4.80
2010,04,24,06,34,11.30
2010,04,24,06,35,11.30
2010,04,24,06,36,6.40
2010,04,24,06,37,6.40
2010,04,24,06,38,3.20
2010,04,24,06,39,6.40
2010,04,24,06,40,4.80
2010,04,24,06,41,8.10
2010,04,24,06,42,11.30
2010,04,24,06,43,6.40
2010,04,24,06,44,6.40
2010,04,24,06,45,8.10
2010,04,24,06,46,4.80
2010,04,24,06,47,6.40
2010,04,24,06,48,8.10
2010,04,24,06,49,4.80
2010,04,24,06,50,6.40
2010,04,24,06,51,6.40
2010,04,24,06,52,9.60
2010,04,24,06,53,11.30
2010,04,24,06,54,9.60
2010,04,24,06,55,14.50
2010,04,24,06,56,9.60
2010,04,24,06,57,6.40
2010,04,24,06,58,11.30
2010,04,24,06,59,9.60
2010,04,24,07,00,9.60
2010,04,24,07,01,11.30
2010,04,24,07,02,9.60
2010,04,24,07,03,9.60
2010,04,24,07,04,6.40
2010,04,24,07,05,11.30
2010,04,24,07,06,8.10
2010,04,24,07,07,6.40
2010,04,24,07,08,17.70
2010,04,24,07,09,17.70
2010,04,24,07,10,16.10
2010,04,24,07,11,24.20
2010,04,24,07,12,20.90
2010,04,24,07,13,24.20
2010,04,24,07,14,19.30
2010,04,24,07,15,14.50
2010,04,24,07,16,11.30
2010,04,24,07,17,16.10
2010,04,24,07,18,19.30
2010,04,24,07,19,17.70
2010,04,24,07,20,19.30
2010,04,24,07,21,19.30
2010,04,24,07,22,17.70
2010,04,24,07,23,14.50
2010,04,24,07,24,19.30
2010,04,24,07,25,22.50
2010,04,24,07,26,20.90
2010,04,24,07,27,16.10
2010,04,24,07,28,9.60
2010,04,24,07,29,16.10
2010,04,24,07,30,14.50
2010,04,24,07,31,9.60
2010,04,24,07,32,17.70
2010,04,24,07,33,17.70
2010,04,24,07,34,17.70
2010,04,24,07,35,9.60
2010,04,24,07,36,19.30
2010,04,24,07,37,20.90
2010,04,24,07,38,22.50
2010,04,24,07,39,20.90
2010,04,24,07,40,17.70
2010,04,24,07,41,12.90
2010,04,24,07,42,14.50
2010,04,24,07,43,11.30
2010,04,24,07,44,6.40
2010,04,24,07,45,9.60
2010,04,24,07,46,11.30
2010,04,24,07,47,9.60
2010,04,24,07,48,8.10
2010,04,24,07,49,4.80
2010,04,24,07,50,6.40
2010,04,24,07,51,6.40
2010,04,24,07,52,4.80
2010,04,24,07,53,4.80
2010,04,24,07,54,3.20
2010,04,24,07,55,1.60
2010,04,24,07,56,1.60
2010,04,24,07,57,3.20
2010,04,24,07,58,3.20
2010,04,24,07,59,4.80
2010,04,24,08,00,3.20
2010,04,24,08,01,3.20
2010,04,24,08,02,4.80
2010,04,24,08,03,6.40
2010,04,24,08,04,1.60
2010,04,24,08,05,3.20
2010,04,24,08,06,4.80
2010,04,24,08,07,4.80
2010,04,24,08,08,3.20
2010,04,24,08,09,3.20
2010,04,24,08,10,3.20
2010,04,24,08,11,4.80
2010,04,24,08,12,6.40
2010,04,24,08,13,4.80
2010,04,24,08,14,4.80
2010,04,24,08,15,8.10
2010,04,24,08,16,8.10
2010,04,24,08,17,8.10
2010,04,24,08,18,9.60
2010,04,24,08,19,8.10
2010,04,24,08,20,9.60
2010,04,24,08,21,6.40
2010,04,24,08,22,16.10
2010,04,24,08,23,12.90
2010,04,24,08,24,14.50
2010,04,24,08,25,11.30
2010,04,24,08,26,11.30
2010,04,24,08,27,11.30
2010,04,24,08,28,16.10
2010,04,24,08,29,9.60
2010,04,24,08,30,16.10
2010,04,24,08,31,14.50
2010,04,24,08,32,12.90
2010,04,24,08,33,20.90
2010,04,24,08,34,8.10
2010,04,24,08,35,19.30
2010,04,24,08,36,14.50
2010,04,24,08,37,9.60
2010,04,24,08,38,16.10
2010,04,24,08,39,16.10
2010,04,24,08,40,16.10
2010,04,24,08,41,20.90
2010,04,24,08,42,25.70
2010,04,24,08,43,17.70
2010,04,24,08,44,8.10
2010,04,24,08,45,14.50
2010,04,24,08,46,17.70
2010,04,24,08,47,9.60
2010,04,24,08,48,17.70
2010,04,24,08,49,11.30
2010,04,24,08,50,9.60
2010,04,24,08,51,9.60
2010,04,24,08,52,17.70
2010,04,24,08,53,17.70
2010,04,24,08,54,12.90
2010,04,24,08,55,17.70
2010,04,24,08,56,14.50
2010,04,24,08,57,20.90
2010,04,24,08,58,16.10
2010,04,24,08,59,17.70
2010,04,24,09,00,16.10
2010,04,24,09,01,17.70
2010,04,24,09,02,19.30
2010,04,24,09,03,22.50
2010,04,24,09,04,27.40
2010,04,24,09,05,25.70
2010,04,24,09,06,25.70
2010,04,24,09,07,24.20
2010,04,24,09,08,22.50
2010,04,24,09,09,24.20
2010,04,24,09,10,22.50
2010,04,24,09,11,22.50
2010,04,24,09,12,17.70
2010,04,24,09,13,19.30
2010,04,24,09,14,19.30
2010,04,24,09,15,17.70
2010,04,24,09,16,20.90
2010,04,24,09,17,29.00
2010,04,24,09,18,22.50
2010,04,24,09,19,19.30
2010,04,24,09,20,20.90
2010,04,24,09,21,24.20
2010,04,24,09,22,22.50
2010,04,24,09,23,24.20
2010,04,24,09,24,25.70
2010,04,24,09,25,25.70
2010,04,24,09,26,25.70
2010,04,24,09,27,20.90
2010,04,24,09,28,24.20
2010,04,24,09,29,24.20
2010,04,24,09,30,20.90
2010,04,24,09,31,17.70
2010,04,24,09,32,22.50
2010,04,24,09,33,22.50
2010,04,24,09,34,25.70
2010,04,24,09,35,17.70
2010,04,24,09,36,17.70
2010,04,24,09,37,24.20
2010,04,24,09,38,25.70
2010,04,24,09,39,24.20
2010,04,24,09,40,20.90
2010,04,24,09,41,19.30
2010,04,24,09,42,17.70
2010,04,24,09,43,24.20
2010,04,24,09,44,20.90
2010,04,24,09,45,17.70
2010,04,24,09,46,20.90
2010,04,24,09,47,20.90
2010,04,24,09,48,19.30
2010,04,24,09,49,19.30
2010,04,24,09,50,20.90
2010,04,24,09,51,19.30
2010,04,24,09,52,19.30
2010,04,24,09,53,19.30
2010,04,24,09,54,22.50
2010,04,24,09,55,20.90
2010,04,24,09,56,16.10
2010,04,24,09,57,17.70
2010,04,24,09,58,14.50
2010,04,24,09,59,19.30
2010,04,24,10,00,17.70
2010,04,24,10,01,19.30
2010,04,24,10,02,19.30
2010,04,24,10,03,17.70
2010,04,24,10,04,19.30
2010,04,24,10,05,19.30
2010,04,24,10,06,24.20
2010,04,24,10,07,22.50
2010,04,24,10,08,22.50
2010,04,24,10,09,19.30
2010,04,24,10,10,19.30
2010,04,24,10,11,14.50
2010,04,24,10,12,19.30
2010,04,24,10,13,19.30
2010,04,24,10,14,14.50
2010,04,24,10,15,33.80
2010,04,24,10,16,24.20
2010,04,24,10,17,27.40
2010,04,24,10,18,22.50
2010,04,24,10,19,22.50
2010,04,24,10,20,22.50
2010,04,24,10,21,24.20
2010,04,24,10,22,27.40
2010,04,24,10,23,32.20
2010,04,24,10,24,27.40
2010,04,24,10,25,30.60
2010,04,24,10,26,29.00
2010,04,24,10,27,32.20
2010,04,24,10,28,30.60
2010,04,24,10,29,29.00
2010,04,24,10,30,27.40
2010,04,24,10,31,25.70
2010,04,24,10,32,22.50
2010,04,24,10,33,24.20
2010,04,24,10,34,30.60
2010,04,24,10,35,30.60
2010,04,24,10,36,29.00
2010,04,24,10,37,35.40
2010,04,24,10,38,33.80
2010,04,24,10,39,40.20
2010,04,24,10,40,30.60
2010,04,24,10,41,32.20
2010,04,24,10,42,32.20
2010,04,24,10,43,27.40
2010,04,24,10,44,35.40
2010,04,24,10,45,29.00
2010,04,24,10,46,32.20
2010,04,24,10,47,27.40
2010,04,24,10,48,29.00
2010,04,24,10,49,22.50
2010,04,24,10,50,32.20
2010,04,24,10,51,29.00
2010,04,24,10,52,25.70
2010,04,24,10,53,20.90
2010,04,24,10,54,22.50
2010,04,24,10,55,24.20
2010,04,24,10,56,24.20
2010,04,24,10,57,19.30
2010,04,24,10,58,25.70
2010,04,24,10,59,17.70
2010,04,24,11,00,22.50
2010,04,24,11,01,16.10
2010,04,24,11,02,20.90
2010,04,24,11,03,27.40
2010,04,24,11,04,29.00
2010,04,24,11,05,24.20
2010,04,24,11,06,29.00
2010,04,24,11,07,30.60
2010,04,24,11,08,24.20
2010,04,24,11,09,19.30
2010,04,24,11,10,14.50
2010,04,24,11,11,27.40
2010,04,24,11,12,20.90
2010,04,24,11,13,19.30
2010,04,24,11,14,25.70
2010,04,24,11,15,22.50
2010,04,24,11,16,22.50
2010,04,24,11,17,30.60
2010,04,24,11,18,25.70
2010,04,24,11,19,32.20
2010,04,24,11,20,24.20
2010,04,24,11,21,25.70
2010,04,24,11,22,27.40
2010,04,24,11,23,19.30
2010,04,24,11,24,22.50
2010,04,24,11,25,19.30
2010,04,24,11,26,20.90
2010,04,24,11,27,25.70
2010,04,24,11,28,25.70
2010,04,24,11,29,33.80
2010,04,24,11,30,29.00
2010,04,24,11,31,32.20
2010,04,24,11,32,22.50
2010,04,24,11,33,30.60
2010,04,24,11,34,27.40
2010,04,24,11,35,33.80
2010,04,24,11,36,33.80
2010,04,24,11,37,27.40
2010,04,24,11,38,38.60
2010,04,24,11,39,33.80
2010,04,24,11,40,40.20
2010,04,24,11,41,37.00
2010,04,24,11,42,38.60
2010,04,24,11,43,37.00
2010,04,24,11,44,30.60
2010,04,24,11,45,29.00
2010,04,24,11,46,25.70
2010,04,24,11,47,35.40
2010,04,24,11,48,33.80
2010,04,24,11,49,32.20
2010,04,24,11,50,33.80
2010,04,24,11,51,30.60
2010,04,24,11,52,20.90
2010,04,24,11,53,20.90
2010,04,24,11,54,24.20
2010,04,24,11,55,27.40
2010,04,24,11,56,30.60
2010,04,24,11,57,38.60
2010,04,24,11,58,43.50
2010,04,24,11,59,37.00
2010,04,24,12,00,33.80
2010,04,24,12,01,33.80
2010,04,24,12,02,32.20
2010,04,24,12,03,19.30
2010,04,24,12,04,29.00
2010,04,24,12,05,27.40
2010,04,24,12,06,25.70
2010,04,24,12,07,29.00
2010,04,24,12,08,27.40
2010,04,24,12,09,35.40
2010,04,24,12,10,33.80
2010,04,24,12,11,35.40
2010,04,24,12,12,22.50
2010,04,24,12,13,35.40
2010,04,24,12,14,25.70
2010,04,24,12,15,20.90
2010,04,24,12,16,33.80
2010,04,24,12,17,33.80
2010,04,24,12,18,32.20
2010,04,24,12,19,19.30
2010,04,24,12,20,29.00
2010,04,24,12,21,22.50
2010,04,24,12,22,22.50
2010,04,24,12,23,20.90
2010,04,24,12,24,29.00
2010,04,24,12,25,25.70
2010,04,24,12,26,27.40
2010,04,24,12,27,32.20
2010,04,24,12,28,17.70
2010,04,24,12,29,19.30
2010,04,24,12,30,19.30
2010,04,24,12,31,24.20
2010,04,24,12,32,20.90
2010,04,24,12,33,25.70
2010,04,24,12,34,30.60
2010,04,24,12,35,30.60
2010,04,24,12,36,32.20
2010,04,24,12,37,29.00
2010,04,24,12,38,29.00
2010,04,24,12,39,33.80
2010,04,24,12,40,32.20
2010,04,24,12,41,25.70
2010,04,24,12,42,27.40
2010,04,24,12,43,37.00
2010,04,24,12,44,46.70
2010,04,24,12,45,40.20
2010,04,24,12,46,35.40
2010,04,24,12,47,29.00
2010,04,24,12,48,38.60
2010,04,24,12,49,41.80
2010,04,24,12,50,38.60
2010,04,24,12,51,33.80
2010,04,24,12,52,49.90
2010,04,24,12,53,43.50
2010,04,24,12,54,32.20
2010,04,24,12,55,40.20
2010,04,24,12,56,35.40
2010,04,24,12,57,33.80
2010,04,24,12,58,30.60
2010,04,24,12,59,35.40
2010,04,24,13,00,29.00
2010,04,24,13,01,27.40
2010,04,24,13,02,24.20
2010,04,24,13,03,22.50
2010,04,24,13,04,17.70
2010,04,24,13,05,20.90
2010,04,24,13,06,22.50
2010,04,24,13,07,24.20
2010,04,24,13,08,24.20
2010,04,24,13,09,24.20
2010,04,24,13,10,20.90
2010,04,24,13,11,30.60
2010,04,24,13,12,22.50
2010,04,24,13,13,25.70
2010,04,24,13,14,17.70
2010,04,24,13,15,17.70
2010,04,24,13,16,20.90
2010,04,24,13,17,22.50
2010,04,24,13,18,20.90
2010,04,24,13,19,30.60
2010,04,24,13,20,20.90
2010,04,24,13,21,27.40
2010,04,24,13,22,32.20
2010,04,24,13,23,32.20
2010,04,24,13,24,35.40
2010,04,24,13,25,35.40
2010,04,24,13,26,38.60
2010,04,24,13,27,33.80
2010,04,24,13,28,32.20
2010,04,24,13,29,46.70
2010,04,24,13,30,40.20
2010,04,24,13,31,24.20
2010,04,24,13,32,27.40
2010,04,24,13,33,32.20
2010,04,24,13,34,35.40
2010,04,24,13,35,33.80
2010,04,24,13,36,30.60
2010,04,24,13,37,32.20
2010,04,24,13,38,33.80
2010,04,24,13,39,24.20
2010,04,24,13,40,19.30
2010,04,24,13,41,22.50
2010,04,24,13,42,22.50
2010,04,24,13,43,32.20
2010,04,24,13,44,30.60
2010,04,24,13,45,37.00
2010,04,24,13,46,29.00
2010,04,24,13,47,24.20
2010,04,24,13,48,30.60
2010,04,24,13,49,22.50
2010,04,24,13,50,19.30
2010,04,24,13,51,20.90
2010,04,24,13,52,22.50
2010,04,24,13,53,25.70
2010,04,24,13,54,40.20
2010,04,24,13,55,40.20
2010,04,24,13,56,41.80
2010,04,24,13,57,27.40
2010,04,24,13,58,37.00
2010,04,24,13,59,29.00
2010,04,24,14,00,29.00
2010,04,24,14,01,29.00
2010,04,24,14,02,37.00
2010,04,24,14,03,29.00
2010,04,24,14,04,30.60
2010,04,24,14,05,35.40
2010,04,24,14,06,30.60
2010,04,24,14,07,33.80
2010,04,24,14,08,25.70
2010,04,24,14,09,24.20
2010,04,24,14,10,27.40
2010,04,24,14,11,35.40
2010,04,24,14,12,35.40
2010,04,24,14,13,35.40
2010,04,24,14,14,29.00
2010,04,24,14,15,27.40
2010,04,24,14,16,32.20
2010,04,24,14,17,29.00
2010,04,24,14,18,29.00
2010,04,24,14,19,29.00
2010,04,24,14,20,40.20
2010,04,24,14,21,40.20
2010,04,24,14,22,35.40
2010,04,24,14,23,40.20
2010,04,24,14,24,37.00
2010,04,24,14,25,30.60
2010,04,24,14,26,29.00
2010,04,24,14,27,29.00
2010,04,24,14,28,43.50
2010,04,24,14,29,37.00
2010,04,24,14,30,40.20
2010,04,24,14,31,27.40
2010,04,24,14,32,27.40
2010,04,24,14,33,29.00
2010,04,24,14,34,33.80
2010,04,24,14,35,24.20
2010,04,24,14,36,30.60
2010,04,24,14,37,35.40
2010,04,24,14,38,25.70
2010,04,24,14,39,25.70
2010,04,24,14,40,27.40
2010,04,24,14,41,22.50
2010,04,24,14,42,25.70
2010,04,24,14,43,29.00
2010,04,24,14,44,24.20
2010,04,24,14,45,20.90
2010,04,24,14,46,29.00
2010,04,24,14,47,30.60
2010,04,24,14,48,30.60
2010,04,24,14,49,29.00
2010,04,24,14,50,30.60
2010,04,24,14,51,27.40
2010,04,24,14,52,27.40
2010,04,24,14,53,19.30
2010,04,24,14,54,38.60
2010,04,24,14,55,33.80
2010,04,24,14,56,32.20
2010,04,24,14,57,29.00
2010,04,24,14,58,41.80
2010,04,24,14,59,41.80
2010,04,24,15,00,35.40
2010,04,24,15,01,29.00
2010,04,24,15,02,30.60
2010,04,24,15,03,35.40
2010,04,24,15,04,43.50
2010,04,24,15,05,38.60
2010,04,24,15,06,32.20
2010,04,24,15,07,35.40
2010,04,24,15,08,40.20
2010,04,24,15,09,46.70
2010,04,24,15,10,30.60
2010,04,24,15,11,40.20
2010,04,24,15,12,35.40
2010,04,24,15,13,29.00
2010,04,24,15,14,32.20
2010,04,24,15,15,29.00
2010,04,24,15,16,41.80
2010,04,24,15,17,32.20
2010,04,24,15,18,38.60
2010,04,24,15,19,30.60
2010,04,24,15,20,27.40
2010,04,24,15,21,29.00
2010,04,24,15,22,30.60
2010,04,24,15,23,25.70
2010,04,24,15,24,29.00
2010,04,24,15,25,32.20
2010,04,24,15,26,29.00
2010,04,24,15,27,25.70
2010,04,24,15,28,19.30
2010,04,24,15,29,24.20
2010,04,24,15,30,29.00
2010,04,24,15,31,32.20
2010,04,24,15,32,27.40
2010,04,24,15,33,27.40
2010,04,24,15,34,16.10
2010,04,24,15,35,27.40
2010,04,24,15,36,32.20
2010,04,24,15,37,27.40
2010,04,24,15,38,33.80
2010,04,24,15,39,29.00
2010,04,24,15,40,24.20
2010,04,24,15,41,45.10
2010,04,24,15,42,46.70
2010,04,24,15,43,33.80
2010,04,24,15,44,37.00
2010,04,24,15,45,38.60
2010,04,24,15,46,37.00
2010,04,24,15,47,33.80
2010,04,24,15,48,35.40
2010,04,24,15,49,35.40
2010,04,24,15,50,32.20
2010,04,24,15,51,32.20
2010,04,24,15,52,25.70
2010,04,24,15,53,32.20
2010,04,24,15,54,32.20
2010,04,24,15,55,29.00
2010,04,24,15,56,27.40
2010,04,24,15,57,30.60
2010,04,24,15,58,27.40
2010,04,24,15,59,29.00
2010,04,24,16,00,27.40
2010,04,24,16,01,20.90
2010,04,24,16,02,27.40
2010,04,24,16,03,25.70
2010,04,24,16,04,30.60
2010,04,24,16,05,27.40
2010,04,24,16,06,22.50
2010,04,24,16,07,20.90
2010,04,24,16,08,24.20
2010,04,24,16,09,19.30
2010,04,24,16,10,25.70
2010,04,24,16,11,20.90
2010,04,24,16,12,16.10
2010,04,24,16,13,17.70
2010,04,24,16,14,27.40
2010,04,24,16,15,24.20
2010,04,24,16,16,19.30
2010,04,24,16,17,9.60
2010,04,24,16,18,19.30
2010,04,24,16,19,24.20
2010,04,24,16,20,22.50
2010,04,24,16,21,27.40
2010,04,24,16,22,24.20
2010,04,24,16,23,30.60
2010,04,24,16,24,37.00
2010,04,24,16,25,41.80
2010,04,24,16,26,32.20
2010,04,24,16,27,43.50
2010,04,24,16,28,27.40
2010,04,24,16,29,40.20
2010,04,24,16,30,33.80
2010,04,24,16,31,38.60
2010,04,24,16,32,33.80
2010,04,24,16,33,32.20
2010,04,24,16,34,33.80
2010,04,24,16,35,25.70
2010,04,24,16,36,27.40
2010,04,24,16,37,35.40
2010,04,24,16,38,32.20
2010,04,24,16,39,27.40
2010,04,24,16,40,33.80
2010,04,24,16,41,29.00
2010,04,24,16,42,17.70
2010,04,24,16,43,17.70
2010,04,24,16,44,30.60
2010,04,24,16,45,25.70
2010,04,24,16,46,24.20
2010,04,24,16,47,30.60
2010,04,24,16,48,30.60
2010,04,24,16,49,40.20
2010,04,24,16,50,33.80
2010,04,24,16,51,30.60
2010,04,24,16,52,22.50
2010,04,24,16,53,22.50
2010,04,24,16,54,24.20
2010,04,24,16,55,37.00
2010,04,24,16,56,30.60
2010,04,24,16,57,27.40
2010,04,24,16,58,29.00
2010,04,24,16,59,37.00
2010,04,24,17,00,37.00
2010,04,24,17,01,40.20
2010,04,24,17,02,38.60
2010,04,24,17,03,32.20
2010,04,24,17,04,29.00
2010,04,24,17,05,30.60
2010,04,24,17,06,29.00
2010,04,24,17,07,37.00
2010,04,24,17,08,33.80
2010,04,24,17,09,35.40
2010,04,24,17,10,22.50
2010,04,24,17,11,29.00
2010,04,24,17,12,30.60
2010,04,24,17,13,35.40
2010,04,24,17,14,32.20
2010,04,24,17,15,29.00
2010,04,24,17,16,24.20
2010,04,24,17,17,20.90
2010,04,24,17,18,22.50
2010,04,24,17,19,20.90
2010,04,24,17,20,22.50
2010,04,24,17,21,17.70
2010,04,24,17,22,14.50
2010,04,24,17,23,19.30
2010,04,24,17,24,22.50
2010,04,24,17,25,19.30
2010,04,24,17,26,25.70
2010,04,24,17,27,30.60
2010,04,24,17,28,35.40
2010,04,24,17,29,35.40
2010,04,24,17,30,30.60
2010,04,24,17,31,32.20
2010,04,24,17,32,27.40
2010,04,24,17,33,32.20
2010,04,24,17,34,29.00
2010,04,24,17,35,37.00
2010,04,24,17,36,35.40
2010,04,24,17,37,30.60
2010,04,24,17,38,24.20
2010,04,24,17,39,30.60
2010,04,24,17,40,35.40
2010,04,24,17,41,30.60
2010,04,24,17,42,20.90
2010,04,24,17,43,11.30
2010,04,24,17,44,22.50
2010,04,24,17,45,27.40
2010,04,24,17,46,22.50
2010,04,24,17,47,30.60
2010,04,24,17,48,25.70
2010,04,24,17,49,29.00
2010,04,24,17,50,33.80
2010,04,24,17,51,33.80
2010,04,24,17,52,27.40
2010,04,24,17,53,30.60
2010,04,24,17,54,20.90
2010,04,24,17,55,33.80
2010,04,24,17,56,32.20
2010,04,24,17,57,25.70
2010,04,24,17,58,33.80
2010,04,24,17,59,27.40
2010,04,24,18,00,29.00
2010,04,24,18,01,24.20
2010,04,24,18,02,32.20
2010,04,24,18,03,25.70
2010,04,24,18,04,27.40
2010,04,24,18,05,32.20
2010,04,24,18,06,24.20
2010,04,24,18,07,33.80
2010,04,24,18,08,25.70
2010,04,24,18,09,29.00
2010,04,24,18,10,24.20
2010,04,24,18,11,25.70
2010,04,24,18,12,29.00
2010,04,24,18,13,25.70
2010,04,24,18,14,25.70
2010,04,24,18,15,25.70